Temperature
21 21 21 21 21 21 20 19 19 17 16 15 15 14 12 11 11 8 5 6 6 7 7 8 7 7 7 7 7 7 7 7 6 6 6 6 5 5 5 5 5 5 6 6 6 6 7 7 8
22 21 22 22 22 21 19 19 17 16 15 14 15 14 12 10 8 6 6 6 6 7 8 8 8 7 7 7 7 7 6 6 6 5 5 5 5 4 4 4 4 4 5 5 5 5 6 6 6
22 22 23 23 21 20 19 17 15 14 14 15 13 12 11 9 8 6 6 6 6 7 8 8 8 8 7 7 7 6 6 6 5 5 5 5 4 4 4 4 4 4 4 4 4 4 4 5 5
22 22 24 22 19 19 18 16 15 14 14 14 13 10 8 8 7 6 6 6 6 7 7 8 8 8 7 7 6 6 6 5 5 4 4 4 4 3 3 3 3 3 3 3 3 3 3 3 4
22 23 23 20 19 18 17 16 16 16 15 14 14 10 7 6 6 6 6 6 6 7 7 7 7 7 7 7 6 6 5 5 4 4 4 4 3 3 3 3 3 3 3 3 3 2 2 2 2
23 24 23 20 18 18 17 17 17 16 15 14 13 10 7 6 5 5 6 6 6 6 7 7 7 6 6 6 6 5 5 5 4 4 4 4 4 3 3 3 3 3 3 3 3 2 2 2 2
24 22 22 20 17 17 17 17 17 16 15 14 14 11 7 6 5 5 5 5 6 6 6 6 6 6 6 5 5 5 4 4 4 3 3 4 4 3 3 3 3 3 3 3 2 2 2 2 1
23 23 22 20 18 18 17 16 16 16 14 13 13 12 8 6 6 5 5 5 5 6 6 6 6 6 5 5 5 4 4 4 3 3 3 3 3 3 3 3 2 2 2 2 2 2 1 1 1
22 22 21 21 20 17 16 15 14 13 12 12 11 11 10 8 6 5 5 5 5 5 5 6 6 5 5 5 4 4 3 3 3 3 3 3 3 2 2 2 1 1 1 1 1 1 1 1 1
22 20 18 18 19 16 15 15 13 12 12 11 10 8 8 7 6 6 6 5 5 5 5 5 5 5 5 4 4 3 3 3 2 2 2 2 2 1 1 1 1 0 0 -0 -0 -0 -0 -0 0
19 17 17 16 17 16 16 15 13 13 13 12 10 8 7 6 6 6 6 5 5 4 5 5 5 5 5 4 3 3 2 2 1 1 1 1 1 1 0 -0 -0 -1 -1 -2 -2 -1 -2 -2 -2
17 17 16 15 16 16 15 14 13 14 14 13 12 9 7 6 6 6 6 5 4 4 4 4 4 4 4 4 3 2 1 1 1 0 0 -0 -0 -1 -1 -1 -2 -2 -3 -4 -4 -4 -4 -4 -4
16 15 14 14 15 15 15 14 14 14 12 12 11 9 7 6 6 6 6 5 4 4 4 4 4 4 4 3 2 1 1 0 -0 -0 -1 -1 -2 -2 -2 -3 -3 -4 -5 -5 -5 -5 -5 -5 -5
16 15 14 14 14 14 14 14 13 13 12 11 9 8 7 7 7 6 5 4 4 3 3 4 4 4 3 2 1 1 0 -0 -1 -1 -1 -2 -3 -3 -3 -3 -4 -5 -6 -6 -6 -6 -7 -7 -7
16 15 15 14 14 14 14 14 13 13 11 10 9 8 7 7 7 6 5 4 4 3 3 3 3 3 2 2 1 1 0 -1 -1 -1 -2 -3 -3 -3 -4 -4 -5 -6 -6 -7 -7 -7 -8 -8 -8
18 17 16 15 15 13 13 14 15 13 11 10 9 8 8 7 7 6 5 4 4 3 3 3 3 3 2 1 1 0 -0 -1 -1 -2 -2 -3 -3 -4 -4 -5 -6 -7 -7 -7 -8 -8 -8 -8 -9
18 19 19 15 15 14 12 14 14 12 11 10 9 9 8 7 7 6 5 4 3 3 3 3 3 2 2 1 1 0 -0 -1 -1 -2 -3 -3 -4 -5 -5 -6 -7 -7 -8 -8 -9 -9 -9 -9 -9
20 20 21 18 15 15 13 14 14 11 11 11 10 10 9 8 7 6 5 4 3 3 2 2 2 2 2 1 1 0 -0 -1 -1 -2 -3 -4 -4 -5 -6 -7 -7 -8 -8 -9 -9 -9 -9 -10 -10
19 20 19 19 16 15 15 15 16 12 11 11 11 11 10 9 8 7 6 4 3 2 2 2 2 2 2 1 1 1 0 -1 -2 -3 -4 -4 -5 -6 -7 -7 -8 -8 -9 -9 -9 -10 -10 -10 -10
19 19 20 17 15 15 15 15 17 13 11 11 12 12 11 10 9 8 6 4 3 2 2 2 2 1 1 1 1 0 -1 -1 -2 -4 -4 -5 -6 -7 -7 -8 -8 -9 -9 -9 -10 -10 -10 -10 -10
19 19 18 17 17 16 14 16 16 15 13 12 12 12 12 11 10 8 6 5 3 2 2 1 1 1 1 1 0 -0 -1 -2 -3 -4 -4 -5 -6 -7 -8 -8 -9 -9 -10 -10 -10 -10 -10 -10 -10
18 17 17 16 15 16 16 15 15 14 12 12 12 12 11 11 11 9 7 5 3 2 2 1 1 1 1 0 -0 -1 -2 -2 -3 -4 -5 -6 -6 -7 -8 -9 -9 -9 -10 -10 -10 -10 -10 -10 -10
17 16 16 16 15 16 17 16 17 15 13 13 12 12 12 11 11 10 8 6 4 2 2 2 1 1 1 0 -0 -1 -2 -3 -3 -4 -5 -6 -7 -7 -8 -9 -9 -10 -10 -10 -10 -10 -10 -10 -10
16 16 15 15 15 16 18 17 17 15 17 16 15 14 13 12 11 9 8 6 4 2 2 1 1 1 0 -0 -1 -1 -2 -3 -4 -5 -5 -6 -7 -8 -8 -9 -10 -10 -10 -10 -10 -10 -10 -10 -10
16 16 16 16 15 17 17 17 17 17 17 17 16 15 13 12 10 9 7 5 4 3 2 1 1 1 0 -0 -1 -2 -2 -3 -4 -5 -6 -6 -7 -8 -8 -9 -10 -10 -10 -10 -10 -10 -10 -10 -10
18 17 16 16 17 17 16 16 18 17 17 16 15 14 12 11 10 8 7 5 4 3 2 1 1 0 -0 -1 -1 -2 -3 -4 -4 -5 -6 -7 -7 -8 -9 -9 -10 -10 -10 -10 -10 -10 -10 -10 -10
17 17 16 15 17 16 17 19 17 15 14 13 13 12 11 11 9 8 6 5 3 2 1 1 1 0 -0 -1 -1 -2 -3 -3 -4 -5 -6 -7 -7 -8 -9 -9 -10 -10 -10 -10 -10 -10 -10 -10 -10
15 15 15 15 16 15 17 19 17 15 15 13 12 13 12 11 9 7 5 4 3 2 1 1 1 0 -0 -1 -1 -2 -3 -3 -4 -5 -6 -7 -7 -8 -9 -9 -10 -10 -10 -10 -10 -10 -10 -10 -10
14 15 15 15 16 14 15 16 19 18 18 17 15 15 14 12 10 8 5 4 2 1 1 1 1 0 -0 -1 -1 -2 -3 -3 -4 -5 -6 -7 -7 -8 -9 -9 -10 -10 -10 -10 -11 -10 -10 -10 -10
16 17 16 15 15 15 14 15 19 18 18 17 16 15 14 12 10 8 5 3 2 1 1 1 1 0 -0 -1 -2 -2 -3 -3 -4 -5 -6 -7 -7 -8 -8 -9 -10 -10 -10 -10 -11 -10 -10 -10 -10
Wind_Speed
6 10 7 3 3 3 7 7 8 8 6 6 8 8 9 8 7 11 6 7 8 12 15 17 18 19 20 21 22 23 23 24 25 25 26 26 26 26 26 26 27 27 27 28 28 28 28 28 28
8 7 5 4 3 3 6 8 11 9 8 7 6 9 9 8 10 10 6 5 10 13 15 15 17 18 19 20 21 22 23 23 24 24 25 25 25 25 25 26 26 26 26 27 27 27 28 28 28
8 8 4 2 5 6 8 11 13 11 8 6 6 8 6 7 9 6 6 5 12 13 14 14 16 17 18 19 20 21 22 22 23 24 24 24 24 24 25 25 25 26 26 26 26 27 27 28 28
5 4 3 5 8 8 9 13 13 10 5 6 9 8 6 6 5 8 7 8 12 12 12 13 14 16 17 18 19 20 21 22 22 23 24 24 24 24 24 25 25 25 26 26 26 26 26 27 27
4 4 3 6 7 9 12 13 11 10 8 6 8 8 7 8 11 10 8 10 10 10 10 11 12 14 15 16 18 18 19 21 21 22 23 24 24 24 24 24 25 26 26 26 26 26 26 27 27
4 4 3 7 8 8 8 8 6 10 8 5 8 9 7 9 9 9 8 10 10 10 10 10 11 12 12 13 16 17 18 19 20 21 23 24 23 24 24 24 25 26 27 27 27 27 27 27 27
4 4 5 8 8 7 8 5 5 8 8 6 6 8 9 10 9 8 8 10 10 9 9 9 11 12 12 12 14 15 16 18 19 20 22 23 23 23 24 24 26 27 27 28 28 28 29 28 27
5 1 4 7 9 7 9 4 4 5 7 4 2 6 9 13 11 8 8 7 9 9 9 10 11 11 12 12 13 14 15 17 18 19 21 22 22 22 23 23 26 26 27 28 28 28 29 29 27
4 3 4 4 6 9 10 5 5 5 8 5 5 7 13 18 12 9 7 7 6 7 8 9 10 11 12 11 12 13 14 15 17 17 20 20 20 20 20 22 25 26 27 27 27 29 29 28 26
6 3 6 6 6 9 11 8 7 5 8 6 8 11 16 14 11 9 8 7 7 7 6 8 8 9 11 11 12 12 12 13 14 15 18 18 19 19 19 22 24 25 26 25 26 28 27 25 23
7 6 6 7 8 10 9 9 9 8 7 9 13 15 14 12 10 9 7 8 7 7 5 6 6 8 9 11 11 11 11 12 13 14 16 16 17 18 18 19 20 22 22 21 23 22 22 22 23
6 7 7 6 5 8 8 8 7 8 2 4 16 18 15 12 11 9 8 8 8 7 6 5 5 6 7 9 10 10 10 10 12 12 14 15 14 15 17 17 19 19 19 19 19 19 22 23 23
6 6 8 6 3 5 6 6 5 6 7 8 15 17 14 12 10 8 8 8 8 7 6 4 4 5 6 7 8 9 10 9 11 11 12 14 13 13 16 17 18 19 19 18 19 19 19 20 21
8 9 8 7 6 3 5 5 3 6 10 11 13 13 13 12 11 9 8 7 7 7 6 4 4 4 5 6 8 9 9 10 10 10 12 13 14 15 15 16 16 17 18 19 19 19 18 17 18
10 8 6 6 6 5 3 6 9 8 11 12 12 12 12 11 10 10 10 8 7 7 5 4 1 3 5 6 7 8 9 9 9 9 11 12 14 15 15 14 14 16 19 20 18 18 16 14 15
7 5 6 8 8 6 4 7 8 13 13 12 12 11 11 11 11 9 10 8 8 7 5 3 1 3 4 6 7 8 8 8 8 8 10 11 13 15 15 13 13 17 18 17 14 10 6 8 9
7 7 4 8 9 8 6 6 8 12 13 12 12 12 12 11 11 10 10 10 9 6 5 4 2 1 3 6 8 8 8 8 9 8 8 10 12 13 14 14 14 17 16 14 14 8 8 9 10
3 6 5 6 10 9 8 9 9 12 13 12 12 12 12 13 13 11 11 11 9 7 5 4 2 0 3 4 6 7 7 8 9 7 8 10 11 13 14 14 14 16 12 8 7 9 8 8 9
6 7 8 2 8 6 10 12 9 15 13 12 12 13 13 13 12 12 12 11 10 8 6 4 2 1 2 2 3 3 4 4 7 7 8 10 12 13 13 12 13 13 8 7 9 9 10 9 8
7 8 6 5 6 5 8 11 7 15 16 13 12 13 13 12 12 13 12 11 10 10 8 5 3 1 1 1 2 3 4 4 7 6 8 10 12 13 13 12 11 12 8 8 9 9 8 10 9
8 3 5 5 3 8 5 6 5 5 9 11 11 11 11 13 13 14 13 12 10 9 8 6 3 2 1 1 3 4 3 4 4 4 5 10 13 13 12 13 13 12 9 8 9 9 10 11 10
4 6 3 5 6 3 5 4 7 7 7 10 12 12 12 11 11 13 15 13 12 9 9 7 5 4 2 2 2 4 4 4 5 4 4 10 13 13 13 13 13 13 11 8 9 9 9 11 12
3 2 4 6 6 6 6 5 4 7 8 12 13 14 13 11 11 12 14 13 11 11 9 7 6 5 4 3 3 4 4 4 4 5 6 6 10 13 14 13 13 13 12 11 10 9 10 9 11
5 5 6 4 3 4 5 3 3 7 7 8 10 11 11 11 10 10 12 12 10 10 9 7 6 6 5 4 4 4 5 6 7 7 6 6 5 8 12 14 13 14 13 11 11 9 11 11 12
5 5 3 3 4 2 2 3 6 8 7 7 9 9 8 10 10 11 13 13 12 11 10 8 8 7 6 5 4 4 5 6 6 6 6 7 5 5 6 12 12 13 14 15 14 9 11 11 13
3 4 3 3 3 2 3 6 5 8 7 6 4 5 6 8 9 11 13 13 12 12 10 9 9 7 6 5 4 4 5 4 4 5 6 6 6 5 11 12 14 15 16 16 14 8 10 10 11
4 0 2 3 5 5 6 7 4 3 6 7 8 8 9 10 10 11 12 12 12 12 11 10 9 7 6 5 5 5 4 5 6 6 5 5 6 10 12 13 13 14 14 14 11 8 10 10 10
4 5 2 3 3 5 7 6 6 9 9 11 11 11 12 11 11 11 12 12 12 11 10 9 8 7 6 6 5 4 5 6 5 5 7 7 7 10 10 10 10 11 11 12 7 9 9 10 10
5 4 4 4 2 3 5 7 2 7 5 7 10 10 11 13 13 12 11 12 11 10 10 9 8 8 7 6 5 5 5 5 5 6 7 6 7 9 8 8 8 8 8 8 7 9 11 10 11
1 4 5 3 4 5 4 8 4 5 5 6 7 6 8 11 12 12 12 12 11 11 10 10 9 8 7 6 5 5 6 6 6 7 6 7 7 9 9 9 8 9 10 8 8 10 11 10 11
Wind_Direction
244 238 236 256 247 103 83 80 103 113 78 59 48 64 72 47 48 114 114 62 55 49 40 24 20 23 24 24 24 24 23 22 21 20 18 17 16 15 14 12 11 9 7 5 3 1 359 357 355
260 247 253 236 264 116 99 112 97 82 107 116 80 85 86 81 90 105 103 72 67 58 48 27 25 26 26 26 25 24 23 21 19 18 15 14 13 12 11 10 8 6 4 2 0 358 356 354 352
269 261 257 266 38 43 111 105 104 106 123 113 73 40 64 95 98 92 102 97 78 66 59 34 29 29 28 27 25 23 21 19 17 15 12 10 9 8 8 6 5 3 1 359 357 355 352 350 348
277 254 236 54 71 47 104 116 125 127 103 98 113 91 68 46 79 108 114 87 74 65 62 44 32 31 29 27 24 22 19 16 14 12 9 7 5 4 4 3 1 359 358 356 354 351 350 347 344
236 260 171 94 85 87 100 123 148 140 129 136 118 105 98 89 99 112 106 85 76 68 61 51 36 30 28 26 22 19 16 13 11 9 7 4 2 1 0 360 358 356 354 353 351 349 347 344 341
262 269 251 115 114 109 114 140 155 115 112 118 117 113 118 131 124 120 116 98 83 72 58 48 35 27 23 22 18 14 12 10 7 6 4 1 359 358 357 357 355 353 351 350 348 346 345 342 340
303 324 44 103 129 146 138 154 154 126 136 147 134 112 133 150 135 137 122 105 89 74 60 51 44 24 14 13 13 9 8 6 4 3 2 359 357 356 354 354 350 349 348 347 345 344 342 341 339
319 243 111 124 149 140 128 134 69 100 102 74 82 143 157 152 143 141 127 117 110 91 67 44 43 26 12 4 4 3 3 2 1 0 359 358 355 352 350 349 346 345 345 344 343 343 341 340 339
288 246 107 85 136 127 133 130 77 46 99 107 53 42 125 135 145 149 158 153 123 94 76 55 39 24 11 1 1 358 357 357 357 357 355 354 350 347 345 344 343 343 343 341 341 341 340 340 338
349 39 62 26 38 129 149 142 138 151 142 144 110 94 117 135 155 172 174 140 109 89 70 61 42 26 13 2 353 351 350 351 351 355 353 351 349 344 344 342 340 341 339 340 338 338 339 336 332
38 68 88 47 52 119 142 133 156 176 185 182 162 147 147 158 170 177 158 122 107 99 76 62 47 35 16 356 349 340 341 348 345 351 349 351 348 342 342 341 335 335 335 336 333 334 331 329 328
78 68 87 84 69 119 139 141 179 216 76 113 150 152 159 172 178 177 156 127 121 110 100 69 44 42 16 351 334 331 341 344 339 346 347 352 344 340 342 336 332 332 330 330 333 331 325 325 324
95 102 88 100 104 112 131 171 199 207 113 104 130 149 167 180 178 167 141 135 131 120 111 90 47 35 4 337 331 337 336 336 334 341 347 349 346 343 339 332 328 327 328 333 331 324 322 323 321
110 119 121 130 116 130 182 188 205 207 134 137 148 164 177 185 176 159 155 163 143 122 112 91 49 13 346 342 342 328 328 328 336 341 345 348 354 345 337 329 326 325 332 331 324 321 321 319 318
132 130 143 162 166 159 225 229 210 172 145 158 167 178 185 188 180 172 170 162 136 124 118 110 99 352 346 346 333 320 318 329 333 341 344 353 356 342 337 325 323 326 330 326 322 317 317 319 320
182 182 187 179 176 139 207 268 180 147 160 175 182 187 191 193 185 181 165 152 135 137 132 118 50 342 348 341 322 314 319 330 334 344 344 353 347 338 334 325 320 324 327 322 317 313 321 315 311
205 237 176 157 185 159 211 261 131 148 174 186 192 196 193 196 194 186 165 154 147 145 139 151 141 294 345 333 324 324 330 337 338 338 340 342 337 335 333 321 317 325 322 316 317 325 313 310 309
350 328 342 160 180 188 217 245 182 173 188 197 197 202 198 201 199 188 167 157 148 145 153 167 159 44 358 347 337 327 335 332 323 323 328 335 333 331 328 317 320 322 316 311 311 308 306 305 305
329 315 298 84 149 204 242 254 219 177 192 207 206 205 208 206 194 181 166 155 152 159 172 171 164 83 28 16 337 323 321 306 306 312 326 332 327 324 319 315 316 316 308 304 303 306 307 305 303
283 288 307 100 156 215 272 273 250 177 193 204 212 212 210 203 190 177 167 163 167 170 167 165 156 109 25 48 303 276 276 281 290 308 328 324 317 314 315 315 311 307 303 301 301 304 302 306 311
279 287 352 342 268 219 266 268 158 151 184 198 218 227 218 205 193 180 173 172 171 171 160 164 156 187 221 329 290 301 299 299 315 333 321 312 310 312 312 308 304 302 300 296 299 298 302 308 305
320 53 356 303 299 254 191 278 190 173 198 212 217 223 227 218 195 181 175 176 173 161 140 153 177 200 209 249 275 303 302 303 306 302 290 305 314 315 312 306 306 303 299 293 299 310 301 301 304
331 32 282 279 270 278 206 251 192 168 209 216 216 218 218 212 195 180 172 171 162 145 145 164 185 203 203 222 262 275 284 291 296 298 299 306 311 310 308 307 308 303 300 295 295 298 298 298 296
299 273 234 261 261 256 169 226 243 194 194 183 191 199 200 194 185 169 156 152 145 140 149 170 193 207 202 216 248 263 282 292 300 305 307 305 299 302 305 311 311 305 300 297 297 296 300 300 296
236 280 241 226 222 211 111 238 252 158 151 168 178 179 178 176 170 162 154 156 154 155 164 179 196 210 206 214 240 259 271 278 285 294 298 300 298 297 296 310 305 302 300 301 301 300 303 302 303
291 299 337 303 312 334 205 232 240 147 139 134 141 159 169 174 171 168 165 163 163 166 172 184 196 204 204 214 238 250 263 268 270 280 286 289 289 287 296 303 302 301 303 306 305 303 304 307 306
289 144 37 305 282 268 250 220 155 117 174 190 201 204 205 194 180 173 167 167 168 171 178 185 190 198 204 213 233 245 260 272 273 278 278 274 279 294 302 303 299 300 301 301 304 305 306 309 309
287 332 265 248 286 288 283 264 209 195 215 208 211 212 208 192 181 176 173 173 172 171 174 178 186 198 204 211 229 243 246 255 263 271 275 276 283 294 296 296 297 298 300 301 305 310 306 309 310
186 214 233 268 286 251 287 276 175 151 162 195 211 211 199 187 183 180 177 172 166 164 167 178 190 197 204 211 223 247 258 264 269 270 272 277 287 292 292 295 295 297 297 300 307 309 307 309 312
274 237 207 226 237 215 255 271 209 153 165 201 223 209 183 178 178 175 171 167 168 171 176 185 191 194 200 204 215 242 256 263 267 272 279 289 289 291 292 294 294 298 302 299 301 305 307 305 309
Height
1546 1547 1547 1550 1551 1556 1569 1574 1575 1582 1587 1592 1592 1592 1597 1603 1606 1618 1619 1616 1616 1614 1612 1610 1608 1606 1603 1601 1598 1595 1592 1590 1587 1584 1582 1579 1577 1574 1572 1569 1566 1564 1562 1559 1557 1554 1552 1549 1547
1546 1547 1549 1549 1552 1563 1576 1575 1580 1584 1590 1593 1593 1595 1599 1607 1610 1613 1614 1615 1614 1613 1611 1609 1607 1605 1602 1600 1597 1595 1592 1589 1587 1584 1581 1579 1576 1574 1571 1568 1565 1563 1560 1558 1555 1552 1550 1547 1545
1547 1548 1550 1548 1558 1567 1575 1578 1584 1589 1591 1592 1595 1598 1602 1609 1611 1611 1613 1614 1613 1611 1610 1608 1606 1604 1602 1599 1597 1594 1592 1589 1586 1584 1581 1578 1576 1573 1570 1567 1564 1561 1558 1556 1553 1550 1548 1545 1543
1548 1549 1549 1554 1568 1569 1572 1580 1585 1589 1592 1593 1595 1601 1605 1609 1609 1610 1611 1612 1612 1610 1609 1608 1606 1603 1601 1599 1596 1593 1591 1588 1586 1583 1580 1577 1575 1572 1569 1566 1563 1560 1557 1554 1551 1548 1545 1543 1540
1549 1548 1549 1563 1571 1573 1576 1581 1584 1587 1590 1593 1595 1601 1606 1608 1608 1609 1610 1611 1610 1609 1608 1606 1605 1603 1600 1598 1595 1593 1590 1588 1585 1582 1580 1577 1574 1571 1568 1565 1562 1559 1556 1552 1549 1546 1543 1540 1537
1550 1546 1552 1566 1574 1576 1579 1582 1583 1586 1590 1593 1595 1600 1606 1607 1608 1608 1609 1609 1609 1608 1607 1605 1604 1601 1599 1597 1595 1592 1589 1587 1584 1582 1579 1576 1573 1571 1568 1564 1561 1558 1554 1551 1547 1544 1541 1537 1534
1550 1548 1553 1563 1575 1577 1580 1582 1584 1586 1590 1593 1594 1599 1604 1606 1606 1607 1608 1608 1607 1607 1606 1604 1602 1601 1598 1596 1594 1591 1589 1586 1583 1581 1578 1575 1572 1569 1566 1563 1559 1556 1553 1549 1545 1542 1538 1535 1531
1550 1550 1554 1561 1571 1575 1579 1583 1584 1586 1589 1592 1594 1596 1599 1602 1604 1606 1606 1607 1606 1605 1604 1603 1601 1599 1597 1595 1593 1590 1588 1585 1582 1579 1576 1573 1570 1567 1564 1561 1557 1554 1550 1547 1543 1539 1535 1532 1528
1550 1552 1558 1560 1565 1574 1579 1583 1585 1587 1589 1592 1594 1593 1593 1597 1601 1604 1605 1605 1605 1604 1603 1601 1600 1598 1596 1594 1591 1589 1586 1583 1580 1577 1574 1571 1568 1564 1561 1558 1555 1551 1547 1544 1540 1536 1532 1528 1524
1552 1556 1566 1566 1565 1571 1578 1581 1585 1588 1590 1593 1594 1595 1595 1596 1599 1602 1604 1604 1603 1602 1601 1599 1598 1596 1594 1592 1589 1586 1584 1581 1578 1575 1571 1568 1565 1562 1558 1555 1551 1547 1543 1539 1536 1532 1528 1523 1519
1558 1564 1567 1569 1569 1572 1577 1581 1584 1585 1588 1588 1590 1592 1594 1596 1598 1600 1602 1602 1601 1600 1599 1597 1596 1594 1592 1590 1587 1584 1581 1578 1575 1572 1569 1565 1562 1558 1555 1551 1547 1543 1539 1535 1531 1527 1523 1519 1515
1564 1568 1569 1572 1573 1575 1578 1580 1583 1584 1584 1584 1585 1587 1591 1594 1596 1598 1599 1599 1598 1597 1596 1595 1593 1592 1590 1587 1584 1581 1579 1576 1573 1570 1566 1562 1558 1555 1551 1547 1543 1539 1535 1531 1527 1523 1519 1515 1511
1566 1571 1573 1574 1575 1577 1578 1580 1581 1582 1582 1583 1584 1586 1589 1592 1594 1596 1596 1596 1596 1595 1594 1593 1591 1589 1587 1584 1581 1579 1576 1573 1570 1567 1563 1560 1556 1552 1548 1543 1539 1536 1532 1528 1523 1519 1515 1511 1507
1567 1571 1574 1576 1576 1578 1579 1579 1580 1579 1580 1582 1583 1585 1587 1590 1592 1592 1593 1594 1593 1592 1591 1590 1589 1587 1584 1582 1579 1576 1573 1570 1568 1565 1561 1557 1553 1549 1544 1540 1536 1532 1529 1525 1520 1516 1512 1508 1504
1569 1572 1575 1575 1576 1577 1579 1578 1575 1575 1577 1580 1582 1584 1586 1588 1589 1589 1590 1590 1590 1589 1588 1587 1586 1584 1582 1579 1576 1573 1570 1568 1565 1562 1559 1555 1551 1546 1542 1537 1533 1529 1525 1521 1517 1513 1509 1505 1500
1567 1568 1572 1572 1573 1576 1581 1575 1566 1570 1574 1578 1580 1582 1583 1585 1586 1587 1587 1586 1586 1585 1585 1584 1583 1581 1579 1576 1573 1570 1568 1566 1563 1559 1556 1552 1548 1543 1539 1534 1530 1527 1523 1518 1514 1510 1506 1501 1496
1565 1563 1559 1571 1570 1573 1576 1572 1569 1569 1572 1575 1577 1579 1580 1582 1582 1583 1583 1582 1582 1582 1581 1581 1580 1578 1576 1573 1570 1568 1566 1563 1560 1556 1553 1549 1545 1540 1536 1532 1528 1524 1520 1516 1512 1508 1503 1498 1493
1562 1557 1554 1560 1567 1569 1571 1568 1566 1567 1569 1571 1573 1575 1576 1576 1577 1579 1579 1578 1578 1578 1578 1577 1576 1574 1572 1570 1568 1565 1563 1560 1557 1553 1550 1546 1542 1538 1533 1529 1525 1521 1517 1513 1509 1504 1500 1495 1490
1559 1559 1559 1557 1563 1566 1565 1561 1558 1562 1565 1567 1568 1570 1571 1572 1574 1575 1575 1573 1573 1573 1574 1574 1573 1571 1569 1567 1564 1562 1559 1556 1553 1550 1547 1543 1539 1534 1530 1526 1522 1518 1514 1510 1506 1502 1496 1491 1487
1559 1560 1557 1559 1562 1563 1561 1557 1551 1555 1558 1560 1563 1564 1565 1567 1569 1569 1569 1568 1568 1569 1570 1570 1569 1567 1565 1563 1561 1558 1555 1552 1550 1547 1544 1540 1535 1531 1527 1523 1519 1515 1511 1507 1503 1499 1493 1488 1484
1557 1557 1560 1562 1558 1558 1563 1555 1551 1552 1555 1557 1558 1559 1560 1561 1563 1564 1563 1563 1564 1565 1565 1565 1565 1563 1562 1560 1557 1555 1552 1549 1547 1544 1540 1536 1532 1529 1525 1521 1517 1513 1509 1504 1500 1496 1491 1485 1479
1559 1560 1561 1562 1565 1559 1559 1564 1554 1552 1554 1554 1553 1554 1554 1556 1558 1558 1557 1558 1559 1560 1560 1561 1561 1560 1558 1556 1554 1551 1549 1546 1543 1540 1536 1532 1529 1525 1522 1517 1514 1509 1505 1501 1497 1492 1488 1482 1475
1559 1560 1561 1562 1563 1562 1554 1560 1549 1548 1551 1548 1547 1547 1548 1550 1552 1553 1552 1553 1554 1555 1555 1557 1557 1556 1554 1552 1550 1548 1545 1543 1539 1536 1532 1529 1525 1522 1518 1514 1510 1506 1502 1497 1493 1488 1483 1478 1472
1559 1560 1560 1562 1563 1564 1549 1553 1548 1544 1539 1538 1539 1541 1542 1544 1546 1548 1549 1549 1549 1549 1551 1552 1552 1552 1550 1549 1547 1545 1542 1539 1536 1532 1529 1525 1521 1518 1514 1511 1506 1502 1498 1494 1489 1484 1479 1473 1467
1560 1563 1564 1565 1570 1556 1548 1550 1544 1532 1530 1532 1535 1537 1538 1540 1541 1542 1543 1543 1543 1544 1546 1548 1548 1547 1546 1545 1543 1541 1539 1536 1532 1529 1525 1521 1517 1514 1510 1506 1502 1498 1494 1489 1485 1480 1474 1468 1462
1555 1559 1568 1570 1563 1554 1549 1551 1534 1526 1528 1530 1532 1533 1535 1536 1536 1537 1537 1537 1538 1539 1541 1543 1543 1543 1542 1541 1539 1537 1535 1532 1529 1526 1522 1518 1514 1510 1506 1502 1498 1494 1490 1486 1481 1476 1470 1464 1458
1556 1555 1558 1564 1556 1560 1548 1533 1529 1527 1528 1528 1529 1530 1530 1531 1531 1532 1532 1532 1533 1534 1536 1538 1539 1539 1538 1537 1535 1533 1531 1528 1525 1522 1518 1514 1510 1507 1503 1499 1494 1490 1486 1482 1477 1472 1466 1461 1455
1559 1557 1560 1564 1566 1568 1546 1532 1531 1528 1524 1524 1524 1524 1524 1525 1525 1526 1526 1527 1528 1529 1531 1533 1534 1534 1533 1532 1531 1529 1527 1524 1521 1518 1514 1511 1507 1503 1499 1494 1490 1486 1482 1478 1473 1468 1463 1457 1451
1560 1559 1558 1558 1557 1568 1563 1543 1513 1514 1514 1516 1517 1518 1518 1518 1519 1519 1520 1522 1523 1525 1526 1528 1529 1529 1529 1528 1527 1525 1523 1520 1517 1514 1510 1507 1503 1499 1495 1491 1486 1482 1478 1474 1469 1464 1459 1454 1448
1549 1549 1552 1562 1557 1556 1562 1545 1510 1509 1510 1512 1513 1513 1513 1513 1513 1514 1515 1517 1518 1519 1520 1522 1523 1524 1524 1523 1522 1521 1519 1516 1513 1510 1507 1503 1499 1495 1491 1487 1483 1478 1474 1470 1465 1461 1456 1450 1445